This is the latest recevied weather packets stored in our database for station/object KC0SIQ-13. If no packets are shown the sender has not sent any weather packets the latest 1 day(s).
| Time | Temp. | Humidity | Pressure | Rain* | Wind** | Luminosity | Snow |
|---|---|---|---|---|---|---|---|
| 1778080561 | 0.56° C | 99% | 1018 hPa | 1.27 mm | - | 66 W/m² | - |
| 1778080258 | 0.56° C | 99% | 1018.1 hPa | 1.27 mm | - | 60 W/m² | - |
| 1778079651 | 0.56° C | 99% | 1018.1 hPa | 0 mm | - | 54 W/m² | - |
| 1778079348 | 0° C | 99% | 1017.7 hPa | 0 mm | - | 49 W/m² | - |
| 1778078742 | 0° C | 99% | 1018.2 hPa | 1.78 mm | - | 46 W/m² | - |
| 1778077231 | 0° C | 99% | 1017.8 hPa | 0 mm | - | 30 W/m² | - |
| 1778076928 | 0° C | 99% | 1017.7 hPa | 0 mm | - | 30 W/m² | - |
| 1778075110 | 0° C | 99% | 1017.5 hPa | 0 mm | - | 16 W/m² | - |
| 1778074200 | -0.56° C | 99% | 1017.3 hPa | 0 mm | - | 12 W/m² | - |
| 1778070265 | -0.56° C | 99% | 1016.4 hPa | 0 mm | - | 0 W/m² | - |
| 1778069660 | -0.56° C | 99% | 1016.3 hPa | 0 mm | - | 0 W/m² | - |
| 1778068450 | -0.56° C | 99% | 1016.1 hPa | 0 mm | - | 0 W/m² | - |
| 1778067241 | -0.56° C | 99% | 1015.9 hPa | 0 mm | - | 0 W/m² | - |
| 1778066635 | -0.56° C | 99% | 1015.6 hPa | 0 mm | - | 0 W/m² | - |
| 1778066332 | -0.56° C | 99% | 1015.3 hPa | 0 mm | - | 0 W/m² | - |
| 1778066030 | -0.56° C | 99% | 1015.4 hPa | 0 mm | - | 0 W/m² | - |
| 1778065424 | 0° C | 99% | 1015.4 hPa | 0 mm | - | 0 W/m² | - |
| 1778065121 | 0° C | 99% | 1015.3 hPa | 0 mm | - | 0 W/m² | - |
| 1778063305 | 0° C | 99% | 1015.4 hPa | 0 mm | - | 0 W/m² | - |
| 1778062700 | 0° C | 99% | 1015.4 hPa | 0 mm | - | 0 W/m² | - |
| 1778062395 | 0° C | 99% | 1015.4 hPa | 0 mm | - | 0 W/m² | - |
| 1778062094 | 0° C | 99% | 1015.2 hPa | 0 mm | - | 0 W/m² | - |
| 1778061792 | 0° C | 99% | 1015.2 hPa | 0 mm | - | 0 W/m² | - |
| 1778061490 | 0° C | 99% | 1015 hPa | 0 mm | - | 0 W/m² | - |
| 1778059372 | 0° C | 99% | 1015.2 hPa | 0 mm | - | 0 W/m² | - |
* Rain latest hour (hover to see other rain measurements)
** Current wind speed in m/s (hover to see current wind gust speed)